EW3714 Weather Reports


Display with metric or nautical units.
time (UTC)temp
F
wind
direction
speed
MPH
gust
MPH
rain 1hr
in
rain 24hr
in
rain mn
in
humidity
%
barometer
mb
20260508035458 63 83 2.0 2.0 0.00 0.00 0.00 76 1016.0
20260508034955 63 85 2.0 2.0 0.00 0.00 0.00 76 1016.3
20260508034452 63 89 2.0 2.0 0.00 0.00 0.00 75 1016.4
20260508033948 63 78 2.0 2.0 0.00 0.00 0.00 75 1016.7
20260508033447 63 92 2.0 2.0 0.00 0.00 0.00 74 1016.7
20260508032944 63 88 2.0 2.0 0.00 0.00 0.00 74 1016.9
20260508032441 63 60 2.0 3.0 0.00 0.00 0.00 74 1017.0
20260508031938 64 86 2.0 3.0 0.00 0.00 0.00 72 1017.0
20260508031436 64 64 2.0 2.0 0.00 0.00 0.00 72 1016.8
20260508030931 64 101 1.0 2.0 0.00 0.00 0.00 72 1016.7
20260508030428 64 60 2.0 2.0 0.00 0.00 0.00 72 1016.5
20260508025925 64 87 2.0 2.0 0.00 0.00 0.00 72 1016.1
20260508025422 64 63 2.0 2.0 0.00 0.00 0.00 72 1015.7
20260508024919 64 84 2.0 2.0 0.00 0.00 0.00 72 1015.7
20260508024416 64 94 2.0 2.0 0.00 0.00 0.00 72 1015.9
20260508023912 64 93 1.0 2.0 0.00 0.00 0.00 71 1015.7
20260508023409 64 82 1.0 2.0 0.00 0.00 0.00 71 1015.4
20260508022906 64 74 2.0 3.0 0.00 0.00 0.00 72 1014.5
20260508022401 64 86 2.0 2.0 0.00 0.00 0.00 73 1014.2
20260508021859 64 67 2.0 3.0 0.00 0.00 0.00 71 1014.1
20260508021354 64 94 1.0 2.0 0.00 0.00 0.00 71 1014.5
20260508020850 64 77 1.0 2.0 0.00 0.00 0.00 70 1014.5
20260508020349 64 100 1.0 2.0 0.00 0.00 0.00 70 1014.2
20260508015846 64 92 2.0 3.0 0.00 0.00 0.00 70 1014.6
20260508015343 64 73 2.0 3.0 0.00 0.00 0.00 70 1014.5
20260508014839 65 75 2.0 2.0 0.00 0.00 0.00 70 1014.1
20260508014337 65 83 2.0 3.0 0.00 0.00 0.00 69 1013.9
20260508013837 65 104 1.0 2.0 0.00 0.00 0.00 68 1014.1
20260508013334 65 96 2.0 2.0 0.00 0.00 0.00 68 1014.3
20260508012831 65 78 2.0 2.0 0.00 0.00 0.00 69 1014.4
20260508012329 65 70 1.0 2.0 0.00 0.00 0.00 67 1015.0
20260508011826 65 79 1.0 2.0 0.00 0.00 0.00 66 1014.4
20260508011324 65 89 1.0 3.0 0.00 0.00 0.00 66 1014.8
20260508010821 66 79 2.0 3.0 0.00 0.00 0.00 66 1015.3
20260508010319 66 106 2.0 4.0 0.00 0.00 0.00 65 1014.6
20260508005815 66 62 2.0 2.0 0.00 0.00 0.00 65 1014.5
20260508005312 66 77 2.0 2.0 0.00 0.00 0.00 65 1014.8
20260508004808 66 65 0.0 2.0 0.00 0.00 0.00 63 1014.8
20260508004304 66 86 2.0 3.0 0.00 0.00 0.00 64 1015.1
20260508003801 67 99 0.0 2.0 0.00 0.00 0.00 64 1015.4
20260508003259 67 104 2.0 4.0 0.00 0.00 0.00 63 1015.0
20260508002755 67 81 2.0 2.0 0.00 0.00 0.00 64 1014.8
20260508002252 67 88 2.0 2.0 0.00 0.00 0.00 62 1015.6
20260508001748 67 121 0.0 2.0 0.00 0.00 0.00 61 1015.7
20260508001243 67 126 1.0 2.0 0.00 0.00 0.00 60 1015.8
20260508000740 67 77 2.0 2.0 0.00 0.00 0.00 62 1015.3
20260508000237 68 77 2.0 2.0 0.00 0.00 0.00 62 1015.7
20260507235733 67 102 1.0 2.0 0.00 0.00 0.00 63 1015.9
20260507235231 68 46 2.0 2.0 0.00 0.00 0.00 61 1016.0
20260507234728 68 219 0.0 2.0 0.00 0.00 0.00 61 1016.1
20260507234225 68 78 2.0 3.0 0.00 0.00 0.00 63 1015.9
20260507233721 68 59 2.0 3.0 0.00 0.00 0.00 63 1016.1
20260507233219 68 79 2.0 2.0 0.00 0.00 0.00 64 1015.9
20260507232716 68 44 3.0 3.0 0.00 0.00 0.00 63 1016.3
20260507232213 68 73 1.0 2.0 0.00 0.00 0.00 62 1016.0
20260507231710 68 73 2.0 2.0 0.00 0.00 0.00 62 1016.1
20260507231207 68 67 2.0 3.0 0.00 0.00 0.00 62 1015.8
20260507230703 68 79 2.0 2.0 0.00 0.00 0.00 60 1016.1
20260507230201 68 51 2.0 2.0 0.00 0.00 0.00 62 1016.0
20260507225700 68 88 0.0 2.0 0.00 0.00 0.00 60 1016.0
20260507225157 68 237 0.0 2.0 0.00 0.00 0.00 60 1016.0
20260507224653 68 58 0.0 2.0 0.00 0.00 0.00 60 1016.0
20260507224149 68 159 1.0 2.0 0.00 0.00 0.00 61 1015.9
20260507223645 68 66 2.0 3.0 0.00 0.00 0.00 65 1016.2
20260507223142 68 77 0.0 2.0 0.00 0.00 0.00 62 1016.3
20260507222639 68 60 2.0 2.0 0.00 0.00 0.00 63 1016.6
20260507222136 68 71 0.0 4.0 0.00 0.00 0.00 62 1016.5
20260507221632 68 71 2.0 2.0 0.00 0.00 0.00 62 1016.7
20260507221128 68 61 2.0 3.0 0.00 0.00 0.00 62 1016.4
20260507220626 68 68 1.0 3.0 0.00 0.00 0.00 62 1016.5
20260507220123 68 22 1.0 4.0 0.00 0.00 0.00 62 1016.4
20260507215619 68 108 2.0 2.0 0.00 0.00 0.00 62 1016.3
20260507215117 68 104 0.0 3.0 0.00 0.00 0.00 61 1016.7
20260507214614 69 40 2.0 3.0 0.00 0.00 0.00 61 1016.5
20260507214110 68 97 1.0 2.0 0.00 0.00 0.00 63 1016.6
20260507213607 69 97 2.0 3.0 0.00 0.00 0.00 62 1016.8
20260507213104 70 120 2.0 3.0 0.00 0.00 0.00 59 1016.6
20260507212600 70 82 2.0 2.0 0.00 0.00 0.00 60 1016.5
20260507212057 69 25 2.0 2.0 0.00 0.00 0.00 61 1016.5
20260507211553 70 30 0.0 3.0 0.00 0.00 0.00 60 1016.4
20260507211049 69 85 1.0 3.0 0.00 0.00 0.00 62 1016.4
20260507210547 68 73 2.0 3.0 0.00 0.00 0.00 61 1016.5
20260507210043 68 0 1.0 2.0 0.00 0.00 0.00 62 1016.4
20260507205540 68 57 2.0 3.0 0.00 0.00 0.00 64 1016.4
20260507205037 67 22 1.0 3.0 0.00 0.00 0.00 63 1016.4
20260507204533 67 94 0.0 3.0 0.00 0.00 0.00 63 1016.8
20260507204031 68 83 2.0 2.0 0.00 0.00 0.00 64 1017.4
20260507203528 69 188 2.0 4.0 0.00 0.00 0.00 60 1017.4
20260507203026 69 180 0.0 3.0 0.00 0.00 0.00 60 1017.4
20260507202521 67 182 4.0 4.0 0.00 0.00 0.00 62 1017.3
20260507202018 66 78 0.0 4.0 0.00 0.00 0.00 65 1017.3
20260507201513 67 50 2.0 4.0 0.00 0.00 0.00 64 1017.3
20260507201010 68 79 2.0 3.0 0.00 0.00 0.00 62 1017.5
20260507200505 67 89 0.0 3.0 0.00 0.00 0.00 64 1017.2
20260507200001 68 174 2.0 3.0 0.00 0.00 0.00 61 1017.4
20260507195459 68 60 1.0 4.0 0.00 0.00 0.00 63 1017.7
20260507194956 67 69 2.0 3.0 0.00 0.00 0.00 65 1017.8
20260507194453 66 86 2.0 4.0 0.00 0.00 0.00 64 1017.6
20260507193948 67 92 1.0 3.0 0.00 0.00 0.00 64 1017.6
20260507193446 67 56 0.0 4.0 0.00 0.00 0.00 64 1017.5
20260507192942 67 47 2.0 4.0 0.00 0.00 0.00 65 1017.7
20260507192438 66 49 2.0 4.0 0.00 0.00 0.00 66 1018.0
20260507191936 66 59 2.0 3.0 0.00 0.00 0.00 69 1017.9
20260507191431 66 21 1.0 4.0 0.00 0.00 0.00 67 1018.0
20260507190928 65 71 2.0 4.0 0.00 0.00 0.00 69 1017.9
20260507190426 65 80 1.0 2.0 0.00 0.00 0.00 68 1017.5
20260507185925 66 62 3.0 3.0 0.00 0.00 0.00 69 1017.9
20260507185422 65 65 2.0 4.0 0.00 0.00 0.00 68 1017.8
20260507184918 66 78 2.0 4.0 0.00 0.00 0.00 66 1018.3
20260507184416 66 44 2.0 4.0 0.00 0.00 0.00 67 1017.8
20260507183914 65 71 1.0 3.0 0.00 0.00 0.00 69 1018.1
20260507183410 66 73 3.0 4.0 0.00 0.00 0.00 68 1018.3
20260507182908 66 116 3.0 4.0 0.00 0.00 0.00 66 1018.2
20260507182403 66 45 2.0 3.0 0.00 0.00 0.00 70 1018.7
20260507181900 65 51 0.0 3.0 0.00 0.00 0.00 69 1018.2
20260507181356 64 67 3.0 5.0 0.00 0.00 0.00 69 1018.2
20260507180853 64 127 2.0 3.0 0.00 0.00 0.00 69 1018.2
20260507180349 65 253 1.0 3.0 0.00 0.00 0.00 69 1018.3
20260507175845 64 76 2.0 4.0 0.00 0.00 0.00 72 1018.0
20260507175343 64 59 2.0 3.0 0.00 0.00 0.00 73 1017.9
20260507174840 64 73 3.0 3.0 0.00 0.00 0.00 72 1017.9
20260507174337 64 58 2.0 2.0 0.00 0.00 0.00 72 1017.8
20260507173835 64 80 1.0 2.0 0.00 0.00 0.00 71 1018.3
20260507173331 64 89 1.0 3.0 0.00 0.00 0.00 72 1018.4
20260507172828 64 182 2.0 3.0 0.00 0.00 0.00 72 1018.2
20260507172325 63 83 1.0 3.0 0.00 0.00 0.00 72 1018.2
20260507171820 63 54 2.0 3.0 0.00 0.00 0.00 73 1018.2
20260507171318 63 102 2.0 3.0 0.00 0.00 0.00 74 1018.1
20260507170815 62 30 2.0 3.0 0.00 0.00 0.00 74 1018.1
20260507170311 62 102 2.0 2.0 0.00 0.00 0.00 76 1018.0
20260507165807 62 173 0.0 4.0 0.00 0.00 0.00 75 1018.8
20260507165306 61 66 2.0 6.0 0.00 0.00 0.00 76 1018.3
20260507164759 61 103 2.0 2.0 0.00 0.00 0.00 76 1018.7
20260507164257 61 74 2.0 4.0 0.00 0.00 0.00 77 1018.2
20260507163754 61 78 1.0 3.0 0.00 0.00 0.00 78 1018.3
20260507163251 60 50 2.0 3.0 0.00 0.00 0.00 80 1018.5
20260507162747 60 100 3.0 3.0 0.00 0.00 0.00 78 1018.7
20260507162243 60 79 2.0 3.0 0.00 0.00 0.00 78 1019.3
20260507161740 60 50 2.0 4.0 0.00 0.00 0.00 77 1020.0
20260507161237 60 79 2.0 3.0 0.00 0.00 0.00 78 1019.8
20260507160732 60 146 2.0 3.0 0.00 0.00 0.00 77 1019.7
20260507160229 61 87 0.0 3.0 0.00 0.00 0.00 77 1019.5
20260507155725 60 27 2.0 4.0 0.00 0.00 0.00 78 1019.5
20260507155221 61 88 2.0 3.0 0.00 0.00 0.00 78 1019.1
20260507154718 60 68 2.0 4.0 0.00 0.00 0.00 79 1019.5
20260507154216 60 121 3.0 5.0 0.00 0.00 0.00 79 1019.1
20260507153712 61 81 2.0 2.0 0.00 0.00 0.00 80 1019.4
20260507153209 61 105 2.0 3.0 0.00 0.00 0.00 79 1019.4
20260507152705 60 47 3.0 3.0 0.00 0.00 0.00 80 1019.6
20260507152201 60 114 2.0 2.0 0.00 0.00 0.00 81 1019.1
20260507151657 61 91 1.0 3.0 0.00 0.00 0.00 81 1018.9
20260507151154 60 131 4.0 5.0 0.00 0.00 0.00 81 1019.3
20260507150651 61 59 3.0 3.0 0.00 0.00 0.00 82 1019.1
20260507150148 60 91 2.0 3.0 0.00 0.00 0.00 82 1019.1
20260507145643 60 65 2.0 2.0 0.00 0.00 0.00 82 1019.3
20260507145141 60 68 2.0 3.0 0.00 0.00 0.00 83 1019.7
20260507144637 60 89 2.0 3.0 0.00 0.00 0.00 83 1019.6
20260507144136 60 71 2.0 2.0 0.00 0.00 0.00 83 1019.4
20260507143632 60 98 2.0 4.0 0.00 0.00 0.00 84 1019.6
20260507143129 60 89 1.0 3.0 0.00 0.00 0.00 84 1019.6
20260507142624 60 75 2.0 4.0 0.00 0.00 0.00 84 1019.0
20260507142122 60 133 2.0 3.0 0.00 0.00 0.00 83 1019.1
20260507141618 60 55 2.0 2.0 0.00 0.00 0.00 83 1018.6
20260507141115 60 73 2.0 3.0 0.00 0.00 0.00 84 1018.9
20260507140611 60 83 2.0 2.0 0.00 0.00 0.00 85 1018.7
20260507140109 60 115 2.0 4.0 0.00 0.00 0.00 85 1018.9
20260507135606 60 89 0.0 3.0 0.00 0.00 0.00 85 1018.9
20260507135103 59 110 0.0 3.0 0.00 0.00 0.00 86 1018.6
20260507134559 60 113 3.0 5.0 0.00 0.00 0.00 85 1018.3
20260507134055 60 132 0.0 5.0 0.00 0.00 0.00 85 1018.3
20260507133551 60 60 2.0 5.0 0.00 0.00 0.00 85 1018.5
20260507133049 60 89 2.0 4.0 0.00 0.00 0.00 85 1018.3
20260507132546 60 70 2.0 4.0 0.00 0.00 0.00 86 1018.2
20260507132042 59 100 3.0 4.0 0.00 0.00 0.00 86 1018.4
20260507131539 59 73 2.0 4.0 0.00 0.00 0.00 86 1018.3
20260507131036 59 168 4.0 5.0 0.00 0.00 0.00 86 1018.4
20260507130533 59 103 2.0 3.0 0.00 0.00 0.00 87 1018.5
20260507130031 59 82 1.0 4.0 0.00 0.00 0.00 87 1018.5
20260507125529 59 92 2.0 4.0 0.00 0.00 0.00 86 1018.4
20260507125027 59 47 3.0 4.0 0.00 0.00 0.00 87 1018.4
20260507124523 59 59 2.0 4.0 0.00 0.00 0.00 87 1018.3
20260507124021 59 45 3.0 4.0 0.00 0.00 0.00 87 1018.4
20260507123519 60 56 4.0 4.0 0.00 0.00 0.00 87 1018.4
20260507123015 59 116 4.0 6.0 0.00 0.00 0.00 86 1018.5
20260507122510 60 74 3.0 4.0 0.00 0.00 0.00 86 1018.3
20260507122007 60 70 2.0 4.0 0.00 0.00 0.00 86 1018.1
20260507121502 59 133 2.0 3.0 0.00 0.00 0.00 86 1018.1
20260507120958 60 31 2.0 3.0 0.00 0.00 0.00 86 1017.8
20260507120454 59 49 3.0 5.0 0.00 0.00 0.00 86 1017.6
20260507115951 59 43 3.0 4.0 0.00 0.00 0.00 86 1017.2
20260507115448 59 138 2.0 3.0 0.00 0.00 0.00 86 1017.6
20260507114943 59 86 1.0 3.0 0.00 0.00 0.00 87 1018.0
20260507114440 59 120 3.0 4.0 0.00 0.00 0.00 86 1017.6
20260507113937 59 92 2.0 3.0 0.00 0.00 0.00 87 1017.8
20260507113434 59 29 1.0 3.0 0.00 0.00 0.00 87 1017.5
20260507112932 59 122 1.0 4.0 0.00 0.00 0.00 86 1017.5
20260507112429 59 79 5.0 6.0 0.00 0.00 0.00 86 1017.6
20260507111926 59 82 2.0 4.0 0.00 0.00 0.00 86 1017.2
20260507111423 59 79 2.0 4.0 0.00 0.00 0.00 86 1017.2
20260507110919 59 70 2.0 3.0 0.00 0.00 0.00 87 1017.4
20260507110415 59 103 2.0 3.0 0.00 0.00 0.00 86 1017.2
20260507105913 59 138 1.0 3.0 0.00 0.00 0.00 86 1017.3
20260507105409 59 52 3.0 3.0 0.00 0.00 0.00 86 1017.6
20260507104906 60 62 1.0 3.0 0.00 0.00 0.00 86 1017.7
20260507104402 59 93 2.0 3.0 0.00 0.00 0.00 86 1017.7
20260507103858 60 106 1.0 3.0 0.00 0.00 0.00 86 1017.6
20260507103355 60 135 2.0 3.0 0.00 0.00 0.00 86 1017.3
20260507102851 60 1 1.0 3.0 0.00 0.00 0.00 86 1016.8
20260507102348 60 57 3.0 4.0 0.00 0.00 0.00 86 1016.8
20260507101844 59 67 2.0 4.0 0.00 0.00 0.00 86 1017.2
20260507101344 60 74 2.0 6.0 0.00 0.00 0.00 86 1017.1
20260507100842 60 167 2.0 3.0 0.00 0.00 0.00 85 1016.8
20260507100340 60 63 3.0 4.0 0.00 0.00 0.00 86 1016.9
20260507095838 60 43 2.0 3.0 0.00 0.00 0.00 86 1016.8
20260507095334 60 111 2.0 4.0 0.00 0.00 0.00 85 1016.8
20260507094831 60 86 2.0 5.0 0.00 0.00 0.00 85 1016.8
20260507094327 60 95 2.0 4.0 0.00 0.00 0.00 85 1016.7
20260507093825 60 62 2.0 4.0 0.00 0.00 0.00 85 1016.6
20260507093324 60 68 2.0 3.0 0.00 0.00 0.00 85 1016.8
20260507092821 60 65 2.0 2.0 0.00 0.00 0.00 85 1016.8
20260507092317 60 47 2.0 3.0 0.00 0.00 0.00 84 1017.0
20260507091813 60 92 1.0 3.0 0.00 0.00 0.00 84 1016.8
20260507091311 60 35 2.0 3.0 0.00 0.00 0.00 83 1016.9
20260507090811 60 82 2.0 2.0 0.00 0.00 0.00 84 1016.8
20260507090308 60 98 2.0 3.0 0.00 0.00 0.00 83 1016.6
20260507085805 60 52 3.0 3.0 0.00 0.00 0.00 83 1016.4
20260507085302 60 86 2.0 3.0 0.00 0.00 0.00 83 1016.4
20260507084759 60 64 2.0 4.0 0.00 0.00 0.00 83 1016.5
20260507084255 60 113 2.0 4.0 0.00 0.00 0.00 83 1016.1
20260507083753 61 79 2.0 2.0 0.00 0.00 0.00 83 1016.1
20260507083249 60 101 2.0 2.0 0.00 0.00 0.00 83 1016.4
20260507082745 61 62 2.0 3.0 0.00 0.00 0.00 83 1016.2
20260507082241 61 70 1.0 2.0 0.00 0.00 0.00 83 1016.4
20260507081738 61 67 1.0 2.0 0.00 0.00 0.00 83 1016.0
20260507081234 61 89 0.0 3.0 0.00 0.00 0.00 82 1016.0
20260507080731 61 55 2.0 3.0 0.00 0.00 0.00 83 1015.8
20260507080227 61 93 3.0 3.0 0.00 0.00 0.00 82 1015.7
20260507075722 61 81 0.0 3.0 0.00 0.00 0.00 82 1016.2
20260507075219 61 89 2.0 2.0 0.00 0.00 0.00 82 1015.9
20260507074715 61 48 2.0 3.0 0.00 0.00 0.00 82 1015.5
20260507074214 61 65 1.0 2.0 0.00 0.00 0.00 82 1015.5
20260507073710 61 72 2.0 3.0 0.00 0.00 0.00 81 1015.6
20260507073206 61 76 2.0 2.0 0.00 0.00 0.00 81 1016.0
20260507072705 61 112 2.0 3.0 0.00 0.00 0.00 81 1016.1
20260507072201 61 82 3.0 3.0 0.00 0.00 0.00 81 1015.8
20260507071659 61 71 2.0 3.0 0.00 0.00 0.00 80 1015.8
20260507071155 61 104 1.0 3.0 0.00 0.00 0.00 81 1015.8
20260507070652 61 78 2.0 4.0 0.00 0.00 0.00 80 1015.9
20260507070149 61 85 2.0 3.0 0.00 0.00 0.00 80 1016.2
20260507065645 61 54 3.0 3.0 0.00 0.00 0.00 80 1016.1
20260507065142 61 83 1.0 2.0 0.00 0.00 0.00 80 1015.9
20260507064640 61 80 1.0 4.0 0.00 0.00 0.00 80 1015.8
20260507064138 62 58 2.0 3.0 0.00 0.00 0.00 80 1015.7
20260507063636 62 75 2.0 3.0 0.00 0.00 0.00 80 1015.7
20260507063132 62 242 1.0 3.0 0.00 0.00 0.00 79 1015.3
20260507062629 62 136 0.0 3.0 0.00 0.00 0.00 79 1015.5
20260507062127 62 60 2.0 3.0 0.00 0.00 0.00 80 1016.0
20260507061624 62 82 2.0 2.0 0.00 0.00 0.00 79 1015.9
20260507061122 62 108 2.0 3.0 0.00 0.00 0.00 79 1015.9
20260507060620 62 42 2.0 3.0 0.00 0.00 0.00 79 1015.7
20260507060116 62 62 2.0 3.0 0.00 0.00 0.00 80 1015.6
20260507055612 62 66 1.0 2.0 0.00 0.00 0.00 79 1015.8
20260507055108 62 70 2.0 3.0 0.00 0.00 0.00 79 1016.0
20260507054604 62 141 2.0 3.0 0.00 0.00 0.00 79 1015.9
20260507054101 62 76 2.0 3.0 0.00 0.00 0.00 79 1015.9
20260507053559 62 26 3.0 3.0 0.00 0.00 0.00 79 1015.9
20260507053058 62 107 1.0 2.0 0.00 0.00 0.00 79 1015.7
20260507052555 62 72 1.0 2.0 0.00 0.00 0.00 78 1015.7
20260507052051 62 124 1.0 4.0 0.00 0.00 0.00 79 1015.7
20260507051549 62 77 2.0 2.0 0.00 0.00 0.00 79 1015.6
20260507051046 62 141 2.0 5.0 0.00 0.00 0.00 78 1015.6
20260507050542 62 58 2.0 4.0 0.00 0.00 0.00 79 1015.4
20260507050039 62 81 3.0 3.0 0.00 0.00 0.00 79 1015.6
20260507045536 62 67 2.0 3.0 0.00 0.00 0.00 78 1015.8
20260507045033 62 83 3.0 3.0 0.00 0.00 0.00 79 1015.6
20260507044529 63 180 3.0 3.0 0.00 0.00 0.00 78 1015.6
20260507044026 63 60 2.0 4.0 0.00 0.00 0.00 79 1015.8
20260507043522 63 125 2.0 2.0 0.00 0.00 0.00 79 1015.8
20260507043020 62 51 2.0 3.0 0.00 0.00 0.00 80 1015.8
20260507042515 63 89 2.0 4.0 0.00 0.00 0.00 79 1016.0
20260507042011 63 309 1.0 2.0 0.00 0.00 0.00 80 1015.5
20260507041508 63 48 2.0 3.0 0.00 0.00 0.00 80 1015.4
20260507041005 63 57 2.0 2.0 0.00 0.00 0.00 80 1015.4
20260507040501 63 56 2.0 3.0 0.00 0.00 0.00 80 1015.7
20260507035957 63 86 2.0 3.0 0.00 0.00 0.00 80 1015.8